Tracking 18980 objects as of 18-Feb-2018
HD Live streaming from Space Station
objects crossing your sky now

FENGYUN 1C DEB

Track FENGYUN 1C DEB now!
10-day predictions


NORAD ID: 33721
Int'l Code: 1999-025DHJ
Perigee: 595.6 km
Apogee: 783.0 km
Inclination: 98.8 °
Period: 98.4 minutes
Semi major axis: 7060 km
RCS: 0.0011 m2 (small)
Launch date: May 10, 1999
Source: People's Republic of China (PRC)
Launch site: Taiyaun Space Center, China (TSC)

Note: This is SATELLITE DEBRIS
aabbcc
Your satellite tracking list
Your tracking list is empty




NASA's NSSDC Master Catalog

Two Line Element Set (TLE):
1 33721U 99025DHJ 18047.50292180  .00000661  00000-0  12353-3 0  9998
2 33721  98.7899 310.3812 0132693 293.0288  65.6965 14.63410313559431
Source of the keplerian elements: AFSPC